Stations météo

réclame
Mon MeteoGroup
Bonifati, Italie (16337): Température de l'air & dewpoint: 14.10.2017 23:00:00 - 20.10.2017 23:00:00 (CEST)Bonifati, Italie (16337): Vitesse du vent: 14.10.2017 23:00:00 - 20.10.2017 23:00:00 (CEST)Bonifati, Italie (16337): Direction du vent: 14.10.2017 23:00:00 - 20.10.2017 23:00:00 (CEST)Bonifati, Italie (16337): reduced air pressure: 14.10.2017 23:00:00 - 20.10.2017 23:00:00 (CEST)Bonifati, Italie (16337): visibility: 14.10.2017 23:00:00 - 20.10.2017 23:00:00 (CEST)
Date & Time tt [°C] td [°C] ff [km/h] ff [knt] dd ppp [hPa] vv [km]
20.10.2017 23:00:00 - - - - - - -
20.10.2017 22:00:00 - - - - - - -
20.10.2017 21:00:00 - - - - - - -
20.10.2017 20:00:00 17,0 12,7 8 4 NE 1019,0 20
20.10.2017 19:00:00 - - - - - - -
20.10.2017 18:00:00 - - - - - - -
20.10.2017 17:00:00 20,0 13,2 4 2 W 1018,2 25
20.10.2017 16:00:00 - - - - - - -
20.10.2017 15:00:00 - - - - - - -
20.10.2017 14:00:00 21,4 12,0 8 4 SW 1018,2 25
20.10.2017 13:00:00 - - - - - - -
20.10.2017 12:00:00 - - - - - - -
20.10.2017 11:00:00 19,2 10,0 4 2 WNW 1018,3 25
20.10.2017 10:00:00 - - - - - - -
20.10.2017 09:00:00 - - - - - - -
20.10.2017 08:00:00 17,0 3,3 4 2 NE 1017,9 20
20.10.2017 07:00:00 - - - - - - -
20.10.2017 06:00:00 - - - - - - -
20.10.2017 05:00:00 - - - - - - -
20.10.2017 04:00:00 - - - - - - -
20.10.2017 03:00:00 - - - - - - -
20.10.2017 02:00:00 - - - - - - -
20.10.2017 01:00:00 - - - - - - -
20.10.2017 00:00:00 - - - - - - -
19.10.2017 23:00:00 - - - - - - -
19.10.2017 22:00:00 - - - - - - -
19.10.2017 21:00:00 - - - - - - -
19.10.2017 20:00:00 15,4 13,9 9 5 NNW 1018,2 18
19.10.2017 19:00:00 - - - - - - -
19.10.2017 18:00:00 - - - - - - -
19.10.2017 17:00:00 18,2 15,1 8 4 WNW 1017,7 18
19.10.2017 16:00:00 - - - - - - -
19.10.2017 15:00:00 - - - - - - -
19.10.2017 14:00:00 18,4 15,1 5 3 W 1018,3 18
19.10.2017 13:00:00 - - - - - - -
19.10.2017 12:00:00 - - - - - - -
19.10.2017 11:00:00 17,0 13,7 4 2 W 1018,8 16
19.10.2017 10:00:00 - - - - - - -
19.10.2017 09:00:00 - - - - - - -
19.10.2017 08:00:00 14,8 12,1 5 3 NNE 1018,8 20
19.10.2017 07:00:00 - - - - - - -
19.10.2017 06:00:00 - - - - - - -
19.10.2017 05:00:00 - - - - - - -
19.10.2017 04:00:00 - - - - - - -
19.10.2017 03:00:00 - - - - - - -
19.10.2017 02:00:00 - - - - - - -
19.10.2017 01:00:00 - - - - - - -
19.10.2017 00:00:00 - - - - - - -
18.10.2017 23:00:00 - - - - - - -
18.10.2017 22:00:00 - - - - - - -
18.10.2017 21:00:00 - - - - - - -
18.10.2017 20:00:00 16,0 14,9 5 3 NNW 1019,2 18
18.10.2017 19:00:00 - - - - - - -
18.10.2017 18:00:00 - - - - - - -
18.10.2017 17:00:00 17,8 15,1 9 5 WNW 1019,0 18
18.10.2017 16:00:00 - - - - - - -
18.10.2017 15:00:00 - - - - - - -
18.10.2017 14:00:00 18,8 14,5 9 5 WNW 1020,2 18
18.10.2017 13:00:00 - - - - - - -
18.10.2017 12:00:00 - - - - - - -
18.10.2017 11:00:00 15,6 13,1 4 2 W 1021,2 18
18.10.2017 10:00:00 - - - - - - -
18.10.2017 09:00:00 - - - - - - -
18.10.2017 08:00:00 14,8 12,5 4 2 NE 1021,5 15
18.10.2017 07:00:00 - - - - - - -
18.10.2017 06:00:00 - - - - - - -
18.10.2017 05:00:00 - - - - - - -
18.10.2017 04:00:00 - - - - - - -
18.10.2017 03:00:00 - - - - - - -
18.10.2017 02:00:00 - - - - - - -
18.10.2017 01:00:00 - - - - - - -
18.10.2017 00:00:00 - - - - - - -
17.10.2017 23:00:00 - - - - - - -
17.10.2017 22:00:00 - - - - - - -
17.10.2017 21:00:00 - - - - - - -
17.10.2017 20:00:00 16,4 15,8 2 1 N 1023,4 20
17.10.2017 19:00:00 - - - - - - -
17.10.2017 18:00:00 - - - - - - -
17.10.2017 17:00:00 20,2 17,0 4 2 SSW 1023,0 20
17.10.2017 16:00:00 - - - - - - -
17.10.2017 15:00:00 - - - - - - -
17.10.2017 14:00:00 20,4 16,2 8 4 WSW 1024,6 20
17.10.2017 13:00:00 - - - - - - -
17.10.2017 12:00:00 - - - - - - -
17.10.2017 11:00:00 18,8 15,3 8 4 S 1025,3 20
17.10.2017 10:00:00 - - - - - - -
17.10.2017 09:00:00 - - - - - - -
17.10.2017 08:00:00 16,2 11,0 4 2 NNW 1025,5 20
17.10.2017 07:00:00 - - - - - - -
17.10.2017 06:00:00 - - - - - - -
17.10.2017 05:00:00 - - - - - - -
17.10.2017 04:00:00 - - - - - - -
17.10.2017 03:00:00 - - - - - - -
17.10.2017 02:00:00 - - - - - - -
17.10.2017 01:00:00 - - - - - - -
17.10.2017 00:00:00 - - - - - - -
16.10.2017 23:00:00 - - - - - - -
16.10.2017 22:00:00 - - - - - - -
16.10.2017 21:00:00 - - - - - - -
16.10.2017 20:00:00 19,6 8,3 9 5 NE 1025,9 20
16.10.2017 19:00:00 - - - - - - -
16.10.2017 18:00:00 - - - - - - -
16.10.2017 17:00:00 19,0 16,4 4 2 N 1026,1 18
16.10.2017 16:00:00 - - - - - - -
16.10.2017 15:00:00 - - - - - - -
16.10.2017 14:00:00 19,4 16,4 9 5 SSW 1026,9 18
16.10.2017 13:00:00 - - - - - - -
16.10.2017 12:00:00 - - - - - - -
16.10.2017 11:00:00 18,8 15,3 9 5 SSW 1026,3 20
16.10.2017 10:00:00 - - - - - - -
16.10.2017 09:00:00 - - - - - - -
16.10.2017 08:00:00 15,0 12,5 8 4 NNW 1026,8 12
16.10.2017 07:00:00 - - - - - - -
16.10.2017 06:00:00 - - - - - - -
16.10.2017 05:00:00 - - - - - - -
16.10.2017 04:00:00 - - - - - - -
16.10.2017 03:00:00 - - - - - - -
16.10.2017 02:00:00 - - - - - - -
16.10.2017 01:00:00 - - - - - - -
16.10.2017 00:00:00 - - - - - - -
15.10.2017 23:00:00 - - - - - - -
15.10.2017 22:00:00 - - - - - - -
15.10.2017 21:00:00 - - - - - - -
15.10.2017 20:00:00 16,8 15,3 0 0 N 1026,4 18
15.10.2017 19:00:00 - - - - - - -
15.10.2017 18:00:00 - - - - - - -
15.10.2017 17:00:00 19,0 15,5 8 4 SSW 1026,0 20
15.10.2017 16:00:00 - - - - - - -
15.10.2017 15:00:00 - - - - - - -
15.10.2017 14:00:00 20,0 16,0 9 5 SW 1026,6 20
15.10.2017 13:00:00 - - - - - - -
15.10.2017 12:00:00 - - - - - - -
15.10.2017 11:00:00 17,8 15,2 5 3 S 1027,2 20
15.10.2017 10:00:00 - - - - - - -
15.10.2017 09:00:00 - - - - - - -
15.10.2017 08:00:00 15,0 13,4 4 2 NW 1026,8 20
15.10.2017 07:00:00 - - - - - - -
15.10.2017 06:00:00 - - - - - - -
15.10.2017 05:00:00 - - - - - - -
15.10.2017 04:00:00 - - - - - - -
15.10.2017 03:00:00 - - - - - - -
15.10.2017 02:00:00 - - - - - - -
15.10.2017 01:00:00 - - - - - - -
15.10.2017 00:00:00 - - - - - - -
14.10.2017 23:00:00 - - - - - - -

tt = Température de l'air
td = dewpoint
ff = Vitesse du vent
dd = Direction du vent
ppp = reduced air pressure
vv = visibility

stations d'obs. à proximité